Location: Brécé
(48.1084°N, 1.4809°W)
Time: 02:54:00
(UTC+00:00)

Daily predictions for brighter satellites

Satellite Brightness Start Highest point End
(mag) Time Altitude Azimuth Time Altitude Azimuth Time Altitude Azimuth
Cosmos 1461 2.8 00:01:29 10° NW 00:05:39 88° NE 00:06:31 56° SE
Cosmos 1867 3.7 00:05:02 44° S 00:06:24 56° ESE 00:11:45 10° NE
Nadezhda 2 Rocket 4.4 00:00:36 10° N 00:06:47 79° W 00:09:13 39° S
Cosmos 2221 Rocket 3.7 00:06:47 51° SE 00:07:37 63° E 00:12:00 10° NNE
Cosmos 1674 Rocket 4.2 00:06:55 38° ESE 00:07:43 43° E 00:11:49 10° NNE
Cosmos 1674 2.6 00:10:51 67° ESE 00:11:03 69° E 00:14:49 10° NNE
Cosmos 1238 Rocket 2.7 00:09:30 10° N 00:12:06 54° NE 00:12:06 54° NE
ATLAS CENTAUR R/B 2.2 00:09:07 10° NW 00:13:40 41° WSW 00:13:59 40° SW
SL-19 R/B 3.9 00:17:33 66° NNW 00:17:33 66° NNW 00:20:08 10° NNW
Cosmos 2322 Rocket 3.9 00:16:15 10° WSW 00:21:00 27° NW 00:25:47 10° NNE
ATLAS 5 CENTAUR R/B 3.2 00:07:22 10° NW 00:22:08 88° SW 00:24:39 29° SE
CZ-4C R/B 2.9 00:15:13 10° NW 00:22:26 77° SW 00:27:52 24° SSE
Cosmos 2333 Rocket 2.6 00:19:42 28° SW 00:22:40 59° WNW 00:28:18 10° NNE
Cosmos 1378 Rocket 3.8 00:22:19 48° SE 00:23:14 60° E 00:27:38 10° NNE
Cosmos 2322 3.8 00:20:47 35° SW 00:23:19 77° WNW 00:29:05 10° NNE
Cosmos 1844 Rocket 4.2 00:21:27 10° NW 00:25:28 21° W 00:26:33 19° WSW
USA 215 3.5 00:21:20 10° NE 00:27:50 68° NNW 00:34:21 10° WSW
NOSS 0 Rocket 4.3 00:29:23 36° SSE 00:31:39 53° ESE 00:37:43 10° NE
PSLV R/B 3.6 00:29:29 10° N 00:33:51 76° WNW 00:35:01 49° SSW
ALOS 2 4.3 00:38:34 19° WSW 00:39:09 20° W 00:42:23 10° NW
Cosmos 2151 Rocket 3.8 00:35:44 10° NNW 00:40:03 57° W 00:40:53 48° SW
Cosmos 1745 Rocket 3.9 00:35:30 10° N 00:41:46 87° W 00:44:35 35° S
Cosmos 839 Rocket 4.2 00:36:31 10° NW 00:42:52 85° NE 00:49:12 15° SE
Okean 2 3.9 00:42:13 41° WSW 00:43:02 47° WNW 00:47:01 10° N
ADEOS Rocket 3.7 00:42:18 30° SW 00:44:05 36° W 00:49:33 10° NNW
Okean 2 Rocket 3.6 00:40:00 10° NNW 00:44:20 46° W 00:45:13 40° SW
USA 308 3.6 00:44:46 35° SE 00:44:46 35° SE 00:48:18 10° ENE
Cosmos 2219 Rocket 2.7 00:42:56 25° WSW 00:45:57 51° WNW 00:51:26 10° NNE
Meteor 2-12 Rocket 4.4 00:43:15 10° N 00:49:22 79° E 00:52:26 31° SSE
Meteor 1-16 Rocket 4.3 00:43:38 10° NNW 00:49:35 74° W 00:52:02 37° S
Cosmos 1707 4.3 00:50:02 23° W 00:50:57 25° WNW 00:54:13 10° NNW
GP-B 3.6 00:52:09 10° N 00:56:31 53° E 00:58:07 34° SE
Lacrosse 5 3.3 00:58:31 22° SE 00:59:15 22° SE 01:03:09 10° ENE
CZ-2D R/B 3.5 00:54:58 10° NE 00:59:36 29° E 01:02:28 18° SE
Cosmos 1300 2.7 00:56:50 10° N 01:00:38 74° E 01:01:27 52° SSE
Cosmos 546 4.5 01:01:15 53° WSW 01:02:07 83° SSE 01:06:04 10° ENE
SL-14 R/B 3.1 01:02:27 58° SSW 01:03:10 85° W 01:07:03 10° N
ASTEX 1 4.2 00:58:45 10° N 01:03:20 40° WNW 01:05:07 29° WSW
USA 267 3.7 01:02:14 32° SSW 01:04:15 39° SW 01:10:20 10° WNW
Cosmos 371 Rocket 3.2 01:06:03 41° SSW 01:07:45 88° WNW 01:12:39 10° NNE
USA 305 2.9 01:07:08 52° S 01:07:47 61° SE 01:11:55 10° ENE
Cosmos 2150 Rocket 3.9 01:06:08 38° SSW 01:08:09 85° WNW 01:13:21 10° NNE
NOSS 2-2 (C) 4.3 01:03:13 10° NW 01:08:16 62° SW 01:12:46 22° SSE
USA 229 DEB 4.0 01:02:32 10° NW 01:09:46 62° WSW 01:15:06 21° SSE
USA 229 4.0 01:02:37 10° NW 01:09:52 62° WSW 01:15:15 21° SSE
Cosmos 2237 Rocket 2.2 01:11:28 35° SSW 01:13:57 79° ESE 01:19:42 10° NNE
COSMOS 2428 3.5 01:12:17 21° WSW 01:15:41 44° NW 01:21:09 10° NNE
Cosmos 405 Rocket 3.6 01:18:03 31° W 01:18:50 34° WNW 01:22:20 10° N
Cosmos 1437 Rocket 3.4 01:15:35 10° NNW 01:19:01 35° W 01:19:16 34° WSW
Cosmos 304 Rocket 3.8 01:17:17 39° S 01:19:03 76° ESE 01:23:54 10° NNE
SL-16 R/B 3.2 01:14:51 10° SE 01:20:51 53° ENE 01:26:54 10° N
Lacrosse 5 rocket 3.2 01:21:54 16° SE 01:22:09 16° SE 01:24:39 10° E
Cosmos 1125 Rocket 3.7 01:20:00 32° SW 01:22:19 64° WNW 01:27:31 10° NNE
Okean 1 Rocket 3.7 01:18:53 10° NNW 01:23:02 40° W 01:24:05 34° SW
Cosmos 1953 3.1 01:22:11 10° NNW 01:25:50 34° W 01:26:26 32° WSW
SME Rocket 3.1 01:24:35 33° SSE 01:26:22 89° WSW 01:31:33 10° NNW
Resurs 1-4 Rocket 2.6 01:23:52 10° NNE 01:29:00 51° E 01:31:56 24° SSE
Cosmos 2297 4.5 01:26:48 10° NNW 01:32:27 53° ENE 01:38:02 10° SE
Cosmos 1943 Rocket 2.6 01:26:52 10° NNW 01:32:32 64° ENE 01:38:09 10° SE
MOZ.5/SAFIR/RUBIN 5/SL-8 3.9 01:33:59 34° SSW 01:35:53 61° WSW 01:40:37 10° NNW
Cosmos 1709 Rocket 4.2 01:30:12 10° NNW 01:36:11 56° W 01:39:18 28° SSW
Cosmos 1626 4.3 01:36:40 14° W 01:37:44 15° WNW 01:39:57 10° NNW
Cosmos 2315 Rocket 4.1 01:35:34 28° SSW 01:39:04 70° W 01:45:28 10° N
Cosmos 2184 Rocket 4.3 01:36:51 10° N 01:43:06 65° ENE 01:48:45 12° SSE
Cosmos 2278 Rocket 2.9 01:38:28 10° NW 01:43:32 34° WSW 01:45:23 27° SW
EO 1 Delta rocket 4.2 01:39:04 10° N 01:43:38 57° WNW 01:46:02 29° SW
ADEOS II 3.2 01:39:57 10° NNE 01:44:51 38° E 01:48:40 16° SSE
IDEFIX/ARIANE 42P 3.9 01:40:58 10° NNE 01:45:42 32° E 01:49:52 13° SSE
USA 306 2.9 01:47:34 27° WSW 01:49:47 80° NNW 01:53:59 10° ENE
Cosmos 2084 Rocket 3.2 01:49:15 38° SSW 01:50:30 64° SE 01:54:16 10° NE
Thor Agena Rocket 3.8 01:48:01 10° N 01:53:14 59° WNW 01:56:09 26° SW
USA 307 2.8 01:51:04 27° WSW 01:53:16 84° NNW 01:57:29 10° ENE
ERBS 2.1 01:54:54 42° WSW 01:55:45 72° NW 01:58:50 10° NE
NPP 3.8 01:51:39 10° NNE 01:57:04 72° ESE 02:00:35 22° S
Cosmos 2369 Rocket 3.4 01:52:21 10° NNW 01:57:41 43° NE 02:02:59 10° SE
Cosmos 1455 Rocket 3.5 01:57:06 10° NNW 02:01:22 45° W 02:03:15 28° SSW
SL-16 R/B 2.4 01:58:00 24° S 02:01:29 65° ESE 02:07:07 10° NNE
Cosmos 614 Rocket 4.4 01:56:25 10° NNW 02:01:35 63° ENE 02:06:45 10° SE
CZ-4 R/B 3.7 01:57:22 10° NNE 02:02:04 86° WNW 02:04:41 26° SSW
EO 1 Del DPAF 4.4 01:59:52 10° NNE 02:03:04 32° E 02:05:16 16° SSE
Cosmos 1980 4.4 02:02:27 19° WSW 02:06:12 44° NW 02:11:37 10° NNE
Meteor 1-28 Rocket 3.7 02:03:36 13° SSE 02:06:50 58° ENE 02:10:30 10° N
COSMOS 2455 3.6 02:04:48 18° S 02:08:58 43° ESE 02:14:38 10° NE
Cosmos 332 Rocket 4.3 02:07:03 23° SW 02:09:44 47° WNW 02:14:24 10° NNE
USA 215 4.4 02:04:15 10° ENE 02:10:20 42° N 02:16:25 10° WNW
CZ-4C R/B 4.2 02:04:58 10° WNW 02:10:24 21° WSW 02:12:59 18° SW
Cosmos 1536 Rocket 4.0 02:08:03 18° S 02:11:09 58° E 02:15:28 10° NNE
Cosmos 1975 Rocket 4.0 02:16:47 22° SW 02:19:01 36° WNW 02:23:09 10° N
Nadezhda 1 Rocket 4.2 02:15:05 14° S 02:20:36 74° E 02:26:53 10° NNE
Meteor 1-24 Rocket 3.8 02:17:04 22° SSW 02:20:45 63° WNW 02:26:10 10° N
UNK 3.8 02:19:10 18° S 02:22:28 62° WSW 02:27:04 10° NNW
MSX 4.4 02:17:17 10° NNE 02:22:55 53° E 02:28:25 11° S
USA 308 3.3 02:20:31 15° WSW 02:23:56 60° NNW 02:28:06 10° ENE
Cosmos 1455 2.2 02:21:34 10° NNW 02:25:13 57° W 02:27:22 22° SSW
Cosmos 1025 Rocket 3.9 02:23:55 21° SW 02:26:11 36° WNW 02:30:12 10° N
MOS 1 Rocket 3.1 02:23:22 17° S 02:26:32 64° W 02:30:50 10° NNW
YAOGAN 11 4.2 02:23:45 18° S 02:26:59 59° W 02:31:28 10° NNW
Cosmos 1271 Rocket 2.7 02:25:12 10° N 02:29:02 85° E 02:32:45 11° SSE
CZ-2D R/B 2.7 02:34:42 10° N 02:39:50 46° WNW 02:43:47 16° SW
Lacrosse 5 1.9 02:37:41 17° SW 02:41:43 86° NW 02:46:51 10° NE
Helios 1B rocket 4.2 02:40:26 10° NE 02:43:58 28° E 02:47:30 10° SSE
Cosmos 2341 Rocket 4.4 02:39:32 10° N 02:45:56 68° ENE 02:52:17 10° SSE
USA 305 3.8 02:43:29 10° W 02:47:31 45° NNW 02:51:33 10° ENE
Cosmos 2154 Rocket 4.2 02:43:08 10° NNW 02:49:23 60° W 02:55:32 10° S
BREEZE-M DEB (TANK) 4.2 02:47:13 14° SSW 02:50:13 24° SSE 02:52:33 10° E
Cosmos 407 Rocket 4.2 02:46:14 10° NNW 02:51:32 60° ENE 02:56:44 10° SE
Cosmos 1943 3.9 02:51:05 10° S 02:56:33 49° ESE 03:02:01 10° NE
AQUA 4.4 02:52:18 10° N 02:56:50 44° WNW 03:00:41 14° SW
Helios 1A 3.4 02:53:26 11° S 02:57:14 44° W 03:01:18 10° NNW
Cosmos 2237 Rocket 3.9 02:54:11 10° W 02:58:42 23° NW 03:03:14 10° N
Genesis I 4.0 02:54:50 10° NNW 02:58:53 58° NE 03:02:49 10° SE
Lacrosse 5 rocket 1.2 02:57:25 15° SW 03:00:38 85° NW 03:04:46 10° NE
Cosmos 1140 Rocket 3.7 02:57:14 10° NNW 03:02:31 76° ENE 03:07:45 10° SSE
SL-16 R/B 3.4 02:59:47 12° SSW 03:04:43 31° W 03:10:10 10° NNW
Resurs 1-4 Rocket 3.4 03:04:11 10° N 03:08:33 27° WNW 03:12:54 10° WSW
Lacrosse 4 Rocket 4.2 03:07:28 10° SE 03:08:59 12° ESE 03:10:30 10° E
Cosmos 1892 Rocket 4.2 03:06:13 10° S 03:10:35 58° E 03:15:01 10° NNE
Cosmos 1726 Rocket 3.6 03:08:19 10° N 03:12:47 89° E 03:17:10 10° S
Cosmos 1703 3.8 03:11:07 12° SSW 03:14:38 45° WNW 03:18:26 10° N
Cosmos 1943 Rocket 3.4 03:11:27 10° NW 03:15:47 23° WSW 03:20:07 10° SSW
Cosmos 2263 4.2 03:11:10 10° NNW 03:16:50 73° WSW 03:22:32 10° SSE
FENGYUN 3A 4.4 03:11:53 10° NNE 03:17:09 51° E 03:22:23 10° S
NOSS 3-3 (A) 4.1 03:13:44 10° SSW 03:19:20 67° SE 03:25:47 10° NE
NOSS 3-3 (C) 4.1 03:13:50 10° SSW 03:19:25 66° SE 03:25:53 10° NE
Cosmos 1023 Rocket 4.5 03:15:31 10° NNW 03:20:49 75° WSW 03:26:03 10° SSE
ADEOS II 3.0 03:19:46 10° N 03:24:29 35° WNW 03:29:11 10° SW
IDEFIX/ARIANE 42P 3.3 03:20:27 10° N 03:25:20 40° WNW 03:30:13 10° SW
SL-24 DEB 4.3 03:22:20 10° S 03:27:04 88° E 03:31:48 10° N
ARIANE 5 R/B 3.7 03:22:34 10° NNE 03:27:23 42° E 03:32:07 10° S
USA 306 4.2 03:25:51 10° WNW 03:29:46 37° N 03:33:41 10° ENE
CBERS-1 4.1 03:25:15 10° NNE 03:30:23 84° WNW 03:35:31 10° SSW
ERBS 4.4 03:29:11 10° WNW 03:31:32 20° NNW 03:33:53 10° NE
USA 307 4.2 03:29:19 10° WNW 03:33:15 38° N 03:37:12 10° ENE
Cosmos 2218 Rocket 4.0 03:28:16 10° N 03:34:31 79° W 03:40:49 10° S
DNEPR-1 R/B 3.8 03:33:15 10° SSW 03:37:26 71° SE 03:42:09 10° NE
MOS 1-B Rocket 3.9 03:32:45 10° S 03:38:17 62° WSW 03:44:03 10° NNW
Cosmos 2228 4.2 03:35:37 10° NNW 03:39:14 26° W 03:42:49 10° SW
Cosmos 2056 Rocket 4.0 03:35:28 10° S 03:40:34 63° ESE 03:45:48 10° NNE
DEBRIS 3.4 03:31:50 10° WNW 03:41:16 73° SSW 03:44:18 10° ESE
Cosmos 2369 Rocket 2.8 03:36:35 10° NW 03:41:37 35° WSW 03:46:37 10° S
IRS-1D 4.1 03:36:57 10° N 03:42:03 47° WNW 03:47:05 10° SW
